Item Display Status Humidity-temperature Sensor

Elevation Above Sea Level: 3 m

 

Deployed Sensor

  • Serial Number: 20066139
  • NDBC Property Number: 40490
  • Start Date: 6/2/2016 (12:02:36 Z)
  • End Date: 9/14/2017 (08:30:00 Z)
Relative Humidity [%]     6 entries per hour
Showing data from 9/14/2017 (08:30:00 Z) to 9/13/2017 (00:00:01 Z)
Previous Next [ Day | 3-Days | 7-Days ]
First Last
Prev [ Day | 3-Days | 7-Days ] Next
First Last

Start Time:     :
End Time:     :     
Time (in GMT) :00 :50 :40 :30 :20 :10
Previous Next [ Day | 3-Days | 7-Days ]
First Last
Prev [ Day | 3-Days | 7-Days ] Next
First Last


123 => good data
MM => data is determined as missing
-- => data not received/configured
Back to Top Back to Top
9/14/2017 09:00 to 8:10 -- -- -- 72.26 70.66 69.31
9/14/2017 08:00 to 7:10 69.69 68.87 69.90 70.40 70.57 70.47
9/14/2017 07:00 to 6:10 73.04 73.10 73.25 73.48 72.45 72.59
9/14/2017 06:00 to 5:10 -- -- -- -- -- --
9/14/2017 05:00 to 4:10 75.44 73.88 75.71 75.29 74.64 75.10
9/14/2017 04:00 to 3:10 74.89 72.28 71.25 76.55 78.34 81.53
9/14/2017 03:00 to 2:10 84.16 87.34 89.11 84.68 80.28 80.91
9/14/2017 02:00 to 1:10 81.10 82.14 81.93 81.36 81.99 81.97
9/14/2017 01:00 to 0:10 82.22 84.60 85.95 89.07 91.30 87.55
9/14/2017 00:00 to 23:10 83.23 81.23 81.48 81.44 88.88 89.00
9/13/2017 23:00 to 22:10 88.18 90.37 93.09 94.50 94.88 95.05
9/13/2017 22:00 to 21:10 95.59 95.89 95.64 95.32 94.27 92.50
9/13/2017 21:00 to 20:10 88.33 77.31 73.90 70.97 79.86 80.13
9/13/2017 20:00 to 19:10 83.32 83.29 81.78 85.63 91.17 92.27
9/13/2017 19:00 to 18:10 95.13 95.64 95.66 95.59 94.56 93.02
9/13/2017 18:00 to 17:10 90.06 83.74 84.12 84.47 85.61 87.38
9/13/2017 17:00 to 16:10 88.39 88.90 90.60 91.72 92.10 93.15
9/13/2017 16:00 to 15:10 93.00 91.85 89.17 86.96 86.39 86.43
9/13/2017 15:00 to 14:10 86.83 87.09 88.35 87.91 88.92 89.82
9/13/2017 14:00 to 13:10 90.39 90.64 91.34 92.25 92.71 92.08
9/13/2017 13:00 to 12:10 91.21 91.38 89.47 84.28 82.70 83.53
9/13/2017 12:00 to 11:10 86.33 87.82 88.01 89.47 90.73 90.88
9/13/2017 11:00 to 10:10 92.50 92.77 92.92 93.05 93.00 93.15
9/13/2017 10:00 to 9:10 92.86 92.29 91.28 90.60 87.78 83.21
9/13/2017 09:00 to 8:10 86.12 87.55 87.93 88.31 89.49 89.19
9/13/2017 08:00 to 7:10 89.23 88.98 87.40 85.21 79.65 78.91
9/13/2017 07:00 to 6:10 78.47 77.35 76.09 76.62 76.58 81.04
9/13/2017 06:00 to 5:10 83.10 82.09 86.29 86.52 81.29 83.27
9/13/2017 05:00 to 4:10 78.32 79.73 81.06 81.40 81.10 81.40
9/13/2017 04:00 to 3:10 79.80 79.86 75.56 74.36 74.66 75.54
9/13/2017 03:00 to 2:10 75.59 75.56 75.86 76.05 76.24 77.73
9/13/2017 02:00 to 1:10 78.20 81.48 82.35 81.25 81.38 80.96
9/13/2017 01:00 to 0:10 82.98 83.59 82.87 82.11 84.01 82.66

 

 

 

Air Temperature [°C]     6 entries per hour
Showing data from 9/14/2017 (08:30:00 Z) to 9/13/2017 (00:00:01 Z)
Previous Next [ Day | 3-Days | 7-Days ]
First Last
Prev [ Day | 3-Days | 7-Days ] Next
First Last

Start Time:     :
End Time:     :     
Time (in GMT) :00 :50 :40 :30 :20 :10
Previous Next [ Day | 3-Days | 7-Days ]
First Last
Prev [ Day | 3-Days | 7-Days ] Next
First Last


123 => good data
MM => data is determined as missing
-- => data not received/configured
Back to Top Back to Top
9/14/2017 09:00 to 8:10 -- -- -- 29.01 28.95 28.99
9/14/2017 08:00 to 7:10 29.03 29.00 28.95 29.04 29.04 28.92
9/14/2017 07:00 to 6:10 28.79 28.84 28.80 28.82 28.78 28.77
9/14/2017 06:00 to 5:10 -- -- -- -- -- --
9/14/2017 05:00 to 4:10 28.69 28.59 28.57 28.40 28.37 28.40
9/14/2017 04:00 to 3:10 28.50 28.47 28.31 27.87 27.70 27.41
9/14/2017 03:00 to 2:10 26.81 26.92 27.11 27.69 28.27 28.07
9/14/2017 02:00 to 1:10 27.80 27.62 27.41 27.20 27.03 26.72
9/14/2017 01:00 to 0:10 26.42 26.17 25.81 25.58 25.56 26.35
9/14/2017 00:00 to 23:10 27.63 27.58 27.40 26.94 26.97 27.06
9/13/2017 23:00 to 22:10 26.62 26.23 26.11 25.93 25.49 25.30
9/13/2017 22:00 to 21:10 25.28 25.06 24.65 24.59 25.41 25.23
9/13/2017 21:00 to 20:10 26.34 27.93 28.17 28.08 27.88 27.25
9/13/2017 20:00 to 19:10 26.98 26.90 26.86 26.50 26.45 25.86
9/13/2017 19:00 to 18:10 25.47 25.31 25.12 25.13 24.96 25.72
9/13/2017 18:00 to 17:10 26.45 27.42 27.10 26.86 26.62 26.43
9/13/2017 17:00 to 16:10 25.97 25.71 25.43 25.57 25.38 25.14
9/13/2017 16:00 to 15:10 25.42 25.69 26.29 27.18 26.93 26.92
9/13/2017 15:00 to 14:10 26.77 26.47 26.15 26.18 26.06 26.23
9/13/2017 14:00 to 13:10 26.08 25.95 26.02 25.94 26.23 26.36
9/13/2017 13:00 to 12:10 26.33 26.11 26.57 27.33 27.43 27.16
9/13/2017 12:00 to 11:10 26.96 26.70 26.56 26.28 26.27 26.01
9/13/2017 11:00 to 10:10 26.24 26.17 25.81 25.81 25.73 25.85
9/13/2017 10:00 to 9:10 25.74 25.67 25.82 26.21 26.45 27.08
9/13/2017 09:00 to 8:10 26.81 26.72 26.74 26.35 26.13 26.32
9/13/2017 08:00 to 7:10 26.36 26.77 26.88 27.39 28.50 28.42
9/13/2017 07:00 to 6:10 28.43 28.42 28.44 28.45 28.17 27.96
9/13/2017 06:00 to 5:10 27.54 27.20 26.68 27.15 28.06 28.06
9/13/2017 05:00 to 4:10 28.74 28.56 28.29 28.47 28.47 28.36
9/13/2017 04:00 to 3:10 28.76 28.68 29.09 29.09 29.12 29.04
9/13/2017 03:00 to 2:10 29.21 28.98 29.00 28.96 28.94 29.08
9/13/2017 02:00 to 1:10 28.95 28.62 28.37 28.34 28.24 28.07
9/13/2017 01:00 to 0:10 27.99 27.99 28.08 28.51 28.11 28.08